Regional Weather Roundup
Issued by NWS

Home | Current Version | Previous Version | Graphics & Text | Print | Product List | Glossary On
Versions: 1 2 3 4 5 6 7 8 9 10 11 12 13 14 15 16 17 18 19 20 21 22 23 24 25 26 27 28 29 30 31 32 33 34 35 36 37 38 39 40 41 42 43 44 45 46 47 48 49 50
946
ASUS43 KBIS 050402
RWRND

NORTH DAKOTA REGIONAL WEATHER ROUNDUP
NATIONAL WEATHER SERVICE BISMARCK ND
1100 PM CDT WED MAY 04 2016

NOTE: "FAIR" INDICATES FEW OR NO CLOUDS BELOW 12,000 FEET WITH NO
SIGNIFICANT WEATHER AND/OR OBSTRUCTIONS TO VISIBILITY.


NDZ001>003-009>011-017-050500-
NORTHWEST NORTH DAKOTA

CITY           SKY/WX    TMP DP  RH WIND       PRES   REMARKS
WILLISTON      CLEAR     56  43  61 CALM      29.86R
MINOT          CLEAR     71  40  32 S9        29.87S
MINOT AFB      CLEAR     65  41  41 S12       29.85S
$$

NDZ018>021-031>035-040>046-050500-
SOUTHWEST NORTH DAKOTA

CITY           SKY/WX    TMP DP  RH WIND       PRES   REMARKS
BISMARCK       CLEAR     58  46  64 S5        29.95S
DICKINSON      CLEAR     55  40  56 S10       29.93S
GARRISON         N/A     59  45  59 S5        29.90S
HETTINGER ARPT CLEAR     58  42  55 SE8       29.99S
$$

NDZ004>008-012>016-024-026-027-054-050500-
NORTHEAST NORTH DAKOTA

CITY           SKY/WX    TMP DP  RH WIND       PRES   REMARKS
GRAND FORKS    MOCLDY    57  30  35 S8        29.91F
GRND FRKS AFB  PTCLDY    57  28  33 S9        29.91F
DEVILS LAKE    CLEAR     57  45  64 SE8       29.91S
$$

NDZ022-023-025-028>030-036>039-047>053-050500-
SOUTHEAST NORTH DAKOTA

CITY           SKY/WX    TMP DP  RH WIND       PRES   REMARKS
FARGO          PTCLDY    54  28  36 SE6       29.95F
JAMESTOWN      CLEAR     56  38  50 S7        29.94F
$$





USA.gov is the U.S. government's official web portal to all federal, state and local government web resources and services.